Regional Weather Roundup
Issued by NWS Sioux Falls, SD

Home | Current Version | Previous Version | Graphics & Text | Print | Product List | Glossary Off
Versions: 1 2 3 4 5 6 7 8 9 10 11 12 13 14 15 16 17 18 19 20 21 22 23 24 25 26 27 28 29 30 31 32 33 34 35 36 37 38 39 40 41 42 43 44 45 46 47 48 49 50

000
ASUS43 KFSD 070710
RWRFSD

WEATHER ROUNDUP FOR SE SOUTH DAKOTA/SW MINNESOTA/NW IOWA
NATIONAL WEATHER SERVICE SIOUX FALLS SD
100 AM CST SUN FEB 07 2016

NOTE: "FAIR" INDICATES FEW OR NO CLOUDS BELOW 12,000 FEET WITH NO
SIGNIFICANT WEATHER AND OR OBSTRUCTIONS TO VISIBILITY.


SDZ038>040-050-052>070-070800-
SOUTHEAST SOUTH DAKOTA

CITY           SKY/WX    TMP DP  RH WIND       PRES   REMARKS
BROOKINGS      CLEAR     37  28  70 W20G28    29.75R
CHAMBERLAIN    CLEAR     37  27  68 W20G28    29.92R
HURON          CLEAR     37  29  72 W22       29.82R
MADISON        FAIR      36  32  87 W16G22    29.79S
MITCHELL       CLEAR     39  29  67 W21G29    29.86R
SIOUX FALLS    PTCLDY    38  28  67 W14       29.81S
WINNER         FAIR      39  25  57 W20       29.97R
YANKTON        MOCLDY    41  27  56 W20       29.88R
$$

MNZ071-072-080-081-089-090-097-098-070800-
SOUTHWEST MINNESOTA

CITY           SKY/WX    TMP DP  RH WIND       PRES   REMARKS
FAIRMONT       CLOUDY    34  27  75 SW12      29.73F WCI  25
JACKSON        CLOUDY    34  28  80 W18       29.76S WCI  23
LUVERNE        MOCLDY    36  30  80 W15       29.80S
MARSHALL       CLEAR     37  28  70 W21       29.72S
MONTEVIDEO     CLEAR     39  30  70 NW17G25   29.70S
PIPESTONE        N/A     37  23  56 W10       29.77S
REDWOOD FALLS  PTCLDY    35  28  75 SW14      29.69F WCI  26
TRACY          PTCLDY    37  30  75 W16       29.73S
WINDOM         CLOUDY    36  28  75 SW13      29.74S
WORTHINGTON    CLOUDY    32  25  74 W15       29.78F WCI  22
$$

IAZ001>003-012>014-020>022-031-032-NEZ013-014-SDZ071-070800-
NORTHWEST IOWA

CITY           SKY/WX    TMP DP  RH WIND       PRES   REMARKS
CHEROKEE       CLOUDY    32  28  86 SW8       29.83F WCI  25
DENISON        CLOUDY    32  27  80 W10       29.88S WCI  24
ESTHERVILLE    CLOUDY    32  27  81 SW21      29.76F WCI  20
LE MARS        CLOUDY    32  30  93 S7        29.86R WCI  26
ORANGE CITY    CLOUDY    32  28  86 W10       29.83S WCI  24
SHELDON        CLOUDY    32  28  86 SW10      29.80S WCI  24
SIOUX CITY     MOCLDY    26  21  81 SE3       29.87F
SPENCER        CLOUDY    32  26  78 SW15      29.79F WCI  22
STORM LAKE     CLOUDY    30  30 100 SW15      29.83F WCI  19
$$

ABBREVIATIONS USED IN REMARKS
   TC - TEMPERATURE IN CELSIUS
  WCI - WIND CHILL INDEX
   HX - HEAT INDEX
  VSB - VISIBILITY




USA.gov is the U.S. government's official web portal to all federal, state and local government web resources and services.